Regional Weather Roundup
Issued by NWS

Home | Current Version | Previous Version | Graphics & Text | Print | Product List | Glossary On
Versions: 1 2 3 4 5 6 7 8 9 10 11 12 13 14 15 16 17 18 19 20 21 22 23 24 25 26 27 28 29 30 31 32 33 34 35 36 37 38 39 40 41 42 43 44 45 46 47 48 49 50
000
ASUS43 KLMK 011010
RWRKY
KENTUCKY REGIONAL WEATHER ROUNDUP
NATIONAL WEATHER SERVICE LOUISVILLE KY
600 AM EDT SAT NOV 01 2014

NOTE "FAIR" INDICATES FEW OR NO CLOUDS BELOW 12,000 FEET
WITH NO SIGNIFICANT WEATHER AND/OR OBSTRUCTIONS TO VISIBILITY.

KYZ001>023-026-027-061>063-070>075-011100-
WESTERN AND SOUTH CENTRAL KENTUCKY

CITY           SKY/WX    TMP DP  RH WIND       PRES   REMARKS
PADUCAH        CLEAR     34  23  64 N10       30.32R WCI  26
HENDERSON      MOCLDY    36  25  64 NW12G18   30.28R WCI  27
OWENSBORO      CLOUDY    37  27  68 N14G20    30.26R WCI  28
HOPKINSVILLE   CLEAR     35  25  68 NW9       30.23R WCI  27
BOWLING GREEN  CLOUDY    38  27  64 N10G21    30.19R WCI  31
GLASGOW        CLOUDY    36  29  78 N13G21    30.16R WCI  27
$$

KYZ024-025-028>034-038-045-046-053-011100-
NORTH CENTRAL KENTUCKY

CITY           SKY/WX    TMP DP  RH WIND       PRES   REMARKS
LOUISVILLE/SDF CLOUDY    36  27  69 N20G29    30.17R WCI  25
LOUISVILLE/LOU CLOUDY    35  27  72 N15G22    30.18R WCI  25
FORT KNOX      CLOUDY    34  27  73 NW15G28   30.16R WCI  25
$$

KYZ035>037-039>044-047>052-055>060-089>105-011100-
NORTHEAST KENTUCKY

CITY           SKY/WX    TMP DP  RH WIND       PRES   REMARKS
LEXINGTON      LGT SNOW  36  30  79 NW17G25   30.07R WCI  26
COVINGTON      CLOUDY    35  28  75 N22G30    30.10R WCI  23
FRANKFORT      CLOUDY    35  29  78 NW10G24   30.10R WCI  27
$$

KYZ054-064>069-076>088-106>120-011100-
SOUTHEAST KENTUCKY

CITY           SKY/WX    TMP DP  RH WIND       PRES   REMARKS
JACKSON        LGT SNOW  32  30  92 NW8G17    29.95R FOG     WCI  25
LONDON         FLURRIES  35  31  85 NW10G17   30.01R WCI  27
SOMERSET       RAIN      32  32 100 N12G20    30.07R WCI  23
MIDDLESBORO    LGT RAIN  35  32  88 N9G21     29.97R WCI  28
MONTICELLO     CLOUDY    35  32  89 N16G24    30.09R WCI  25
$$




USA.gov is the U.S. government's official web portal to all federal, state and local government web resources and services.